Ulemiste current weather conditions

sailwx.info

Wind from 160 at 17 knots

Air temperature 1.0° C
Visibility: greater than 5.4 NM
Dewpoint -0.0° C

Last reported at 2017-Nov-23 17:50 UTC.
Time now 2017-Nov-23 18:49 UTC

Location: N 59°25' E 024°50'.
View on Google Maps.

See reports from other nearby stations

  
Tides and Currents Weather Stations Pressure Air Temp Water Temp Dewpoint Dewpoint Depression Visibility Wind Speed Wind Dir Waves Ship Positions
date/time (UTC)wind fromknots sea level pressurealtimeterstation pressurevisibilityair tempwater tempwave heightnotes
2017-Nov-23 17:50 160 17 5.4 1.0
2017-Nov-23 17:20 160 15 gusting 26 5.4 1.0
2017-Nov-23 16:50 160 13 5.4 1.0
2017-Nov-23 16:20 150 13 5.4 1.0
2017-Nov-23 15:50 160 14 5.4-0.0
2017-Nov-23 15:20 160 14 5.4-0.0
2017-Nov-23 14:50 160 17 5.4-0.0
2017-Nov-23 14:20 150 14 5.4-0.0
2017-Nov-23 13:50 160 17 gusting 27 5.4-0.0
2017-Nov-23 13:20 150 18 gusting 27 5.4-0.0
2017-Nov-23 12:50 160 13 gusting 25 5.4-0.0
2017-Nov-23 12:20 150 15 5.4-0.0
2017-Nov-23 11:50 150 15 gusting 26 4.9-0.0
2017-Nov-23 11:20 150 14 4.9-0.0 Light freezing rain.
2017-Nov-23 10:50 150 13 4.3-0.0 Light freezing rain.
2017-Nov-23 10:20 150 13 1.9-1.0 Freezing rain. Light snow.
2017-Nov-23 09:50 140 13 3.2-1.0 Freezing rain. Light snow.
2017-Nov-23 09:20 140 13 0.8-1.0 Heavy snow. Light low drifting snow.
2017-Nov-23 08:50 130 13 1.1-1.0 Snow. Light low drifting snow.
2017-Nov-23 08:20 140 13 4.3-1.0 Light snow.
2017-Nov-23 07:50 130 14 2.4-1.0 Snow.
2017-Nov-23 07:20 130 13 5.4-1.0 Light snow.
2017-Nov-23 06:50 130 13 5.4-1.0
2017-Nov-23 06:20 130 14 5.4-1.0
2017-Nov-23 05:50 130 14 5.4-1.0
2017-Nov-23 05:20 140 13 5.4-1.0
2017-Nov-23 04:50 130 13 5.4-1.0
2017-Nov-23 04:20 130 13 5.4-1.0
2017-Nov-23 03:50 130 13 5.4-1.0
2017-Nov-23 03:20 140 12 5.4-1.0
2017-Nov-23 02:50 130 9 5.4-1.0
2017-Nov-23 02:20 130 11 5.4-1.0
2017-Nov-23 01:50 130 9 4.9-1.0
2017-Nov-23 01:20 130 8 4.3-1.0
2017-Nov-23 00:50 130 8 2.4-1.0 Mist.
2017-Nov-23 00:20 140 7 2.7-1.0 Mist.
2017-Nov-22 23:50 130 8 4.9-2.0
2017-Nov-22 23:20 130 6 4.3-2.0
2017-Nov-22 22:50 120 8 4.3-2.0
2017-Nov-22 22:20 120 6 3.2-2.0
2017-Nov-22 21:50 120 6 2.7-2.0 Mist.
2017-Nov-22 21:20 130 6 2.4-2.0 Mist.
2017-Nov-22 20:50 130 7 2.1-3.0 Mist.
2017-Nov-22 20:20 130 8 1.8-3.0 Light snow. Mist.
2017-Nov-22 19:50 140 6 1.9-3.0 Light snow. Mist.
2017-Nov-22 19:20 130 6 1.8-3.0 Light snow. Mist.
2017-Nov-22 18:50 130 7 1.6-3.0 Light snow. Mist.
2017-Nov-22 18:20 150 6 0.9-3.0 Light snow. Mist. Patches of fog.
2017-Nov-22 17:50 150 6 0.6-3.0 Mist.
2017-Nov-22 17:20 160 6 2.1-3.0 Light snow. Mist.
2017-Nov-22 16:50 150 6 0.8-3.0 Mist.
2017-Nov-22 16:20 120 6 1.2-3.0 Mist.
2017-Nov-22 15:50 130 6 1.7-3.0 Light freezing drizzle. Mist.
2017-Nov-22 15:20 150 5 0.6-3.0 Mist. Patches of fog.
2017-Nov-22 14:50 150 5 1.4-2.0 Mist. Patches of fog.
2017-Nov-22 14:20 140 5 0.8-2.0 Mist. Patches of fog.
2017-Nov-22 13:50 140 6 0.6-2.0 Mist. Patches of fog.
2017-Nov-22 13:20 170 6 0.4-2.0 Fog.
2017-Nov-22 12:50 160 6 0.7-1.0 Mist. Patches of fog.
2017-Nov-22 12:20 160 5 0.3-1.0 Fog.
2017-Nov-22 11:50 140 6 0.4-1.0 Fog.
2017-Nov-22 11:20 140 6 1.2-1.0 Mist. Patches of fog.
2017-Nov-22 10:50 140 5 1.6-1.0 Mist.
2017-Nov-22 10:20 150 5 3.8-0.0
2017-Nov-22 09:50 150 4 3.2-0.0
2017-Nov-22 09:20 130 5 3.8-0.0 Light snow.
2017-Nov-22 08:50 120 6 2.6-0.0 Light snow. Mist.
2017-Nov-22 08:20 140 5 3.2-0.0 Light snow.
2017-Nov-22 07:50 140 6 3.2-0.0
2017-Nov-22 07:20 120 6 3.8-0.0
2017-Nov-22 06:50 110 6 4.3-0.0
2017-Nov-22 06:20 110 4 4.3-0.0
2017-Nov-22 05:50 120 4 5.4-0.0
2017-Nov-22 05:20 120 5 5.4-0.0
2017-Nov-22 04:50 120 4 4.9-0.0 Light snow.
2017-Nov-22 04:20 110 5 4.9-0.0 Light snow.
2017-Nov-22 03:50 150 5 4.9-0.0 Light snow.
2017-Nov-22 03:20 130 4 5.4-0.0
2017-Nov-22 02:50 130 5 4.9-0.0 Light snow.
2017-Nov-22 02:20 130 5 4.9-0.0
2017-Nov-22 01:50 150 6 4.9-0.0 Light snow.
2017-Nov-22 01:20 140 6 3.2-0.0 Light snow.
2017-Nov-22 00:50 150 6 2.4-0.0 Light snow. Mist.
2017-Nov-22 00:20 160 5 5.4-0.0
2017-Nov-21 23:50 160 6 4.9-0.0
2017-Nov-21 23:20 150 6 4.3-0.0 Light snow.
2017-Nov-21 22:50 150 5 4.9-0.0
2017-Nov-21 22:20 140 5 4.9-0.0
2017-Nov-21 21:50 150 5 1.1-0.0 Snow showers.
2017-Nov-21 21:20 140 6 3.8-0.0 Snow showers.
2017-Nov-21 20:50 150 6 4.9-0.0 Light snow.
2017-Nov-21 20:20 150 6 5.4-0.0 Light snow.
2017-Nov-21 19:50 170 6 5.4-0.0 Light snow.
2017-Nov-21 19:20 170 6 5.4-0.0 Light snow.
2017-Nov-21 18:50 160 6 4.9-0.0 Light snow.
2017-Nov-21 18:20 160 6 4.9-0.0 Light snow showers.